QPF
0.00 0.00 0.00 0.00 0.00 0.00 0.00 0.00 0.00 0.00 0.00 0.00 0.00 0.00 0.00 0.00 0.00 0.00 0.00 0.00 0.00 0.00 0.00 0.00 0.00 0.00 0.00 0.00 0.00 0.00 0.00 0.00 0.00 0.00 0.00 0.00 0.00 0.00 0.00 0.00 0.00 0.00 0.00
0.00 0.00 0.00 0.00 0.00 0.00 0.00 0.00 0.00 0.00 0.00 0.00 0.00 0.00 0.00 0.00 0.00 0.00 0.00 0.00 0.00 0.00 0.00 0.00 0.00 0.00 0.00 0.00 0.00 0.00 0.00 0.00 0.00 0.00 0.00 0.00 0.00 0.00 0.00 0.00 0.00 0.00 0.00
0.00 0.00 0.00 0.00 0.00 0.00 0.00 0.00 0.00 0.00 0.00 0.00 0.00 0.00 0.00 0.00 0.00 0.00 0.00 0.00 0.00 0.00 0.00 0.00 0.00 0.00 0.00 0.00 0.00 0.00 0.00 0.00 0.00 0.00 0.00 0.00 0.00 0.00 0.00 0.00 0.00 0.00 0.00
0.00 0.00 0.00 0.00 0.00 0.00 0.00 0.00 0.00 0.00 0.00 0.00 0.00 0.00 0.00 0.00 0.00 0.00 0.00 0.00 0.00 0.00 0.00 0.00 0.00 0.00 0.00 0.00 0.00 0.00 0.00 0.00 0.00 0.00 0.00 0.00 0.00 0.00 0.00 0.00 0.00 0.00 0.00
0.00 0.00 0.00 0.00 0.00 0.00 0.00 0.00 0.00 0.00 0.00 0.00 0.00 0.00 0.00 0.00 0.00 0.00 0.00 0.00 0.00 0.00 0.00 0.00 0.00 0.00 0.00 0.00 0.00 0.00 0.00 0.00 0.00 0.00 0.00 0.00 0.00 0.00 0.00 0.00 0.00 0.00 0.00
0.00 0.00 0.00 0.00 0.00 0.00 0.00 0.00 0.00 0.00 0.00 0.00 0.00 0.00 0.00 0.00 0.00 0.00 0.00 0.00 0.00 0.00 0.00 0.00 0.00 0.00 0.00 0.00 0.00 0.00 0.00 0.00 0.00 0.00 0.00 0.00 0.00 0.00 0.00 0.00 0.00 0.00 0.00
0.00 0.00 0.00 0.00 0.00 0.00 0.00 0.00 0.00 0.00 0.00 0.00 0.00 0.00 0.00 0.00 0.00 0.00 0.00 0.00 0.00 0.00 0.00 0.00 0.00 0.00 0.00 0.00 0.00 0.00 0.00 0.00 0.00 0.00 0.00 0.00 0.00 0.00 0.00 0.00 0.00 0.00 0.00
0.00 0.00 0.00 0.00 0.00 0.00 0.00 0.00 0.00 0.00 0.00 0.00 0.00 0.00 0.00 0.00 0.00 0.00 0.00 0.00 0.00 0.00 0.00 0.00 0.00 0.00 0.00 0.00 0.00 0.00 0.00 0.00 0.00 0.00 0.00 0.00 0.00 0.00 0.00 0.00 0.00 0.00 0.00
0.00 0.00 0.00 0.00 0.00 0.00 0.00 0.00 0.00 0.00 0.00 0.00 0.00 0.00 0.00 0.00 0.00 0.00 0.00 0.00 0.00 0.00 0.00 0.00 0.00 0.00 0.00 0.00 0.00 0.00 0.00 0.00 0.00 0.00 0.00 0.00 0.00 0.00 0.00 0.00 0.00 0.00 0.00
0.00 0.00 0.00 0.00 0.00 0.00 0.00 0.00 0.00 0.00 0.00 0.00 0.00 0.00 0.00 0.00 0.00 0.00 0.00 0.00 0.00 0.00 0.00 0.00 0.00 0.00 0.00 0.00 0.00 0.00 0.00 0.00 0.00 0.00 0.00 0.00 0.00 0.00 0.00 0.00 0.00 0.00 0.00
0.00 0.00 0.00 0.00 0.00 0.00 0.00 0.00 0.00 0.00 0.00 0.00 0.00 0.00 0.00 0.00 0.00 0.00 0.00 0.00 0.00 0.00 0.00 0.00 0.00 0.00 0.00 0.00 0.00 0.00 0.00 0.00 0.00 0.00 0.00 0.00 0.00 0.00 0.00 0.00 0.00 0.00 0.00
0.00 0.00 0.00 0.00 0.00 0.00 0.00 0.00 0.00 0.00 0.00 0.00 0.00 0.00 0.00 0.00 0.00 0.00 0.00 0.00 0.00 0.00 0.00 0.00 0.00 0.00 0.00 0.00 0.00 0.00 0.00 0.00 0.00 0.00 0.00 0.00 0.00 0.00 0.00 0.00 0.00 0.00 0.00
0.00 0.00 0.00 0.00 0.00 0.00 0.00 0.00 0.00 0.00 0.00 0.00 0.00 0.00 0.00 0.00 0.00 0.00 0.00 0.00 0.00 0.00 0.00 0.00 0.00 0.00 0.00 0.00 0.00 0.00 0.00 0.00 0.00 0.00 0.00 0.00 0.00 0.00 0.00 0.00 0.00 0.00 0.00
0.00 0.00 0.00 0.00 0.00 0.00 0.00 0.00 0.00 0.00 0.00 0.00 0.00 0.00 0.00 0.00 0.00 0.00 0.00 0.00 0.00 0.00 0.00 0.00 0.00 0.00 0.00 0.00 0.00 0.00 0.00 0.00 0.00 0.00 0.00 0.00 0.00 0.00 0.00 0.00 0.00 0.00 0.00
0.00 0.00 0.00 0.00 0.00 0.00 0.00 0.00 0.00 0.00 0.00 0.00 0.00 0.00 0.00 0.00 0.00 0.00 0.00 0.00 0.00 0.00 0.00 0.00 0.00 0.00 0.00 0.00 0.00 0.00 0.00 0.00 0.00 0.00 0.00 0.00 0.00 0.00 0.00 0.00 0.00 0.00 0.00
0.00 0.00 0.00 0.00 0.00 0.00 0.00 0.00 0.00 0.00 0.00 0.00 0.00 0.00 0.00 0.00 0.00 0.00 0.00 0.00 0.00 0.00 0.00 0.00 0.00 0.00 0.00 0.00 0.00 0.00 0.00 0.00 0.00 0.00 0.00 0.00 0.00 0.00 0.00 0.00 0.00 0.00 0.00
0.00 0.00 0.00 0.00 0.00 0.00 0.00 0.00 0.00 0.00 0.00 0.00 0.00 0.00 0.00 0.00 0.00 0.00 0.00 0.00 0.00 0.00 0.00 0.00 0.00 0.00 0.00 0.00 0.00 0.00 0.00 0.00 0.00 0.00 0.00 0.00 0.00 0.00 0.00 0.00 0.00 0.00 0.00
0.00 0.00 0.00 0.00 0.00 0.00 0.00 0.00 0.00 0.00 0.00 0.00 0.00 0.00 0.00 0.00 0.00 0.01 0.00 0.00 0.00 0.00 0.00 0.00 0.00 0.00 0.00 0.00 0.00 0.00 0.00 0.00 0.00 0.00 0.00 0.00 0.00 0.00 0.00 0.00 0.00 0.00 0.00
0.00 0.00 0.00 0.00 0.00 0.00 0.00 0.00 0.00 0.00 0.00 0.00 0.00 0.00 0.00 0.00 0.00 0.01 0.01 0.00 0.00 0.00 0.00 0.00 0.00 0.00 0.00 0.00 0.00 0.00 0.00 0.00 0.00 0.00 0.00 0.00 0.00 0.00 0.00 0.00 0.00 0.00 0.00
0.00 0.00 0.00 0.00 0.00 0.00 0.00 0.00 0.00 0.00 0.00 0.00 0.00 0.00 0.00 0.00 0.00 0.00 0.00 0.00 0.00 0.00 0.00 0.00 0.00 0.00 0.00 0.00 0.00 0.00 0.00 0.00 0.00 0.00 0.00 0.00 0.00 0.00 0.00 0.00 0.00 0.00 0.00
0.00 0.00 0.00 0.00 0.00 0.00 0.00 0.00 0.00 0.00 0.00 0.00 0.00 0.00 0.00 0.00 0.00 0.00 0.00 0.00 0.00 0.00 0.00 0.00 0.00 0.00 0.00 0.00 0.00 0.00 0.00 0.00 0.00 0.00 0.00 0.00 0.00 0.00 0.00 0.00 0.00 0.00 0.00
0.00 0.00 0.00 0.00 0.00 0.00 0.00 0.00 0.00 0.00 0.00 0.00 0.00 0.00 0.00 0.00 0.00 0.00 0.00 0.00 0.00 0.00 0.00 0.00 0.00 0.00 0.00 0.00 0.00 0.00 0.00 0.00 0.00 0.00 0.00 0.00 0.00 0.00 0.00 0.00 0.00 0.00 0.00
0.00 0.00 0.00 0.00 0.00 0.00 0.00 0.00 0.00 0.00 0.00 0.00 0.00 0.00 0.00 0.00 0.00 0.00 0.00 0.00 0.00 0.00 0.00 0.00 0.00 0.00 0.00 0.00 0.00 0.00 0.00 0.00 0.00 0.00 0.00 0.00 0.00 0.00 0.00 0.00 0.00 0.00 0.00
0.00 0.00 0.00 0.00 0.00 0.00 0.00 0.00 0.00 0.00 0.00 0.00 0.00 0.00 0.00 0.00 0.00 0.00 0.00 0.00 0.00 0.00 0.00 0.00 0.00 0.00 0.00 0.00 0.00 0.00 0.00 0.00 0.00 0.00 0.00 0.00 0.00 0.00 0.00 0.00 0.00 0.00 0.00
0.00 0.00 0.00 0.00 0.00 0.00 0.00 0.00 0.00 0.00 0.00 0.00 0.00 0.00 0.00 0.00 0.00 0.00 0.00 0.00 0.00 0.00 0.00 0.00 0.00 0.00 0.00 0.00 0.00 0.00 0.00 0.00 0.00 0.00 0.00 0.00 0.00 0.00 0.00 0.00 0.00 0.00 0.00
0.00 0.00 0.00 0.00 0.00 0.00 0.00 0.00 0.00 0.00 0.00 0.00 0.00 0.00 0.00 0.00 0.00 0.00 0.00 0.00 0.00 0.00 0.00 0.00 0.00 0.00 0.00 0.00 0.00 0.00 0.00 0.00 0.00 0.00 0.00 0.00 0.00 0.00 0.00 0.00 0.00 0.00 0.00
MSLP
1026.93 1026.84 1026.67 1026.52 1026.31 1025.88 1025.64 1025.43 1025.20 1024.73 1024.27 1023.74 1023.14 1022.29 1021.71 1021.58 1021.02 1020.69 1020.71 1020.91 1020.95 1021.03 1021.06 1020.98 1021.02 1021.07 1021.02 1021.17 1021.43 1021.85 1021.92 1022.38 1022.88 1023.88 1023.85 1024.08 1024.75 1024.78 1024.98 1025.11 1025.35 1025.43 1025.54
1027.27 1026.94 1026.96 1026.73 1026.56 1026.45 1026.29 1025.96 1025.66 1025.36 1024.92 1024.29 1023.54 1023.15 1022.56 1022.21 1021.51 1021.23 1021.17 1021.25 1021.21 1021.19 1021.15 1021.05 1021.07 1021.03 1021.19 1021.27 1021.34 1021.62 1021.93 1022.15 1022.68 1023.45 1024.00 1024.34 1024.79 1024.94 1024.98 1025.27 1025.65 1025.58 1025.70
1027.90 1027.71 1027.36 1027.15 1026.71 1026.47 1026.39 1026.24 1026.03 1025.75 1025.26 1024.55 1024.00 1023.61 1023.24 1022.61 1021.90 1021.87 1021.77 1021.75 1021.45 1021.25 1021.21 1021.21 1021.22 1021.08 1021.20 1021.33 1021.40 1021.63 1021.80 1022.01 1022.42 1023.08 1023.86 1024.33 1024.72 1024.97 1025.26 1025.54 1025.93 1025.94 1025.64
1028.63 1028.41 1028.06 1027.74 1027.31 1026.92 1026.42 1026.21 1026.19 1026.10 1025.87 1025.33 1024.71 1024.20 1023.77 1023.15 1022.86 1022.46 1022.35 1022.09 1021.74 1021.40 1021.31 1021.27 1021.26 1021.34 1021.40 1021.44 1021.48 1021.71 1021.66 1022.02 1022.37 1023.04 1023.55 1024.04 1024.35 1024.61 1024.96 1025.54 1025.91 1026.03 1025.55
1028.70 1028.41 1028.27 1028.09 1027.67 1027.18 1026.88 1026.56 1026.32 1026.13 1026.03 1026.00 1025.39 1024.86 1024.33 1023.77 1023.11 1022.71 1022.40 1022.07 1021.89 1021.63 1021.43 1021.44 1021.47 1021.45 1021.49 1021.38 1021.51 1021.70 1021.86 1022.17 1022.27 1022.77 1023.24 1023.71 1024.08 1024.37 1024.70 1025.08 1025.51 1025.66 1025.41
1029.82 1029.41 1028.85 1028.47 1028.05 1027.60 1027.24 1026.95 1026.64 1026.39 1026.15 1025.87 1025.52 1025.20 1024.73 1024.13 1023.39 1022.92 1022.62 1022.36 1022.18 1021.99 1021.81 1021.64 1021.50 1021.43 1021.47 1021.31 1021.24 1021.47 1021.66 1022.02 1022.35 1022.53 1022.87 1023.13 1023.61 1023.89 1024.25 1024.66 1024.96 1025.40 1025.39
1030.74 1030.10 1029.49 1028.86 1028.39 1028.08 1027.68 1027.22 1026.96 1026.71 1026.35 1025.94 1025.61 1025.31 1024.93 1024.36 1023.68 1023.13 1022.90 1022.71 1022.38 1022.16 1021.89 1021.76 1021.58 1021.45 1021.35 1021.36 1021.43 1021.49 1021.59 1021.69 1021.97 1022.16 1022.59 1022.65 1022.99 1023.15 1023.73 1023.95 1024.32 1024.73 1025.03
1031.34 1030.86 1030.13 1029.64 1029.10 1028.50 1028.04 1027.64 1027.25 1026.70 1026.40 1026.08 1025.60 1025.27 1024.92 1024.35 1023.85 1023.41 1023.02 1022.88 1022.76 1022.36 1021.97 1021.79 1021.70 1021.62 1021.56 1021.58 1021.70 1021.69 1021.77 1021.93 1022.11 1022.16 1022.35 1022.45 1022.43 1022.55 1022.91 1023.21 1023.77 1024.33 1024.98
1031.97 1031.60 1030.89 1030.29 1029.71 1029.15 1028.50 1027.89 1027.31 1026.73 1026.26 1025.94 1025.60 1025.27 1024.93 1024.31 1023.88 1023.41 1023.21 1023.01 1022.85 1022.58 1022.21 1021.87 1021.82 1021.52 1021.53 1021.56 1021.71 1022.01 1022.13 1022.26 1022.15 1022.21 1022.10 1022.16 1022.22 1022.35 1022.66 1023.35 1023.87 1024.44 1024.83
1032.34 1031.88 1031.37 1030.83 1030.28 1029.59 1028.95 1028.18 1027.47 1026.89 1026.20 1025.71 1025.30 1025.11 1024.80 1024.31 1023.80 1023.33 1023.11 1023.03 1023.05 1022.96 1022.49 1022.03 1021.88 1021.45 1021.49 1021.40 1021.64 1021.91 1022.12 1022.33 1022.41 1022.58 1022.69 1022.91 1022.87 1022.72 1022.81 1023.19 1023.69 1024.12 1024.66
1032.51 1032.01 1031.46 1030.95 1030.43 1029.79 1028.95 1028.25 1027.47 1026.77 1026.11 1025.56 1025.18 1024.65 1024.44 1024.27 1023.74 1023.12 1022.72 1022.67 1022.93 1022.77 1022.70 1022.28 1021.99 1021.36 1021.42 1021.40 1021.25 1021.71 1021.98 1022.22 1022.67 1022.98 1023.19 1023.33 1023.53 1023.72 1023.75 1023.75 1023.82 1024.05 1024.56
1032.69 1032.26 1031.69 1030.94 1030.50 1029.79 1029.02 1028.20 1027.45 1026.73 1026.03 1025.43 1024.99 1024.34 1023.90 1023.70 1023.43 1022.95 1022.50 1022.34 1022.51 1022.66 1022.45 1022.24 1021.92 1021.58 1021.40 1021.17 1021.15 1021.48 1021.74 1022.22 1022.75 1023.27 1023.67 1023.85 1024.06 1024.30 1024.32 1024.36 1024.60 1024.73 1024.89
1032.87 1032.52 1031.71 1030.97 1030.55 1029.87 1029.12 1028.25 1027.55 1026.74 1026.03 1025.27 1024.88 1024.38 1023.78 1023.27 1023.03 1022.60 1022.27 1022.20 1022.30 1022.31 1022.24 1022.12 1021.84 1021.48 1021.25 1021.15 1021.15 1021.29 1021.64 1022.30 1022.77 1023.23 1023.67 1023.97 1024.18 1024.42 1024.79 1024.92 1025.19 1025.47 1025.44
1033.17 1032.53 1031.83 1031.12 1030.50 1029.92 1029.19 1028.44 1027.59 1026.85 1026.06 1025.25 1024.54 1024.05 1023.64 1023.33 1022.89 1022.63 1022.38 1022.22 1022.19 1022.20 1022.15 1022.09 1021.92 1021.65 1021.45 1021.38 1021.27 1021.23 1021.56 1021.99 1022.49 1022.88 1023.54 1023.89 1024.34 1024.63 1024.89 1025.08 1025.32 1025.60 1025.72
1033.31 1032.65 1031.96 1031.33 1030.68 1029.97 1029.37 1028.67 1027.83 1027.00 1026.40 1025.46 1024.43 1023.84 1023.37 1022.84 1022.78 1022.53 1022.31 1022.17 1022.22 1022.26 1022.30 1022.23 1022.12 1021.77 1021.74 1021.60 1021.45 1021.27 1021.55 1021.86 1022.40 1022.87 1023.43 1023.94 1024.33 1024.65 1024.82 1025.14 1025.26 1025.64 1025.87
1033.45 1032.72 1032.10 1031.55 1030.85 1030.11 1029.32 1028.46 1027.95 1026.89 1025.90 1025.06 1024.24 1023.64 1022.85 1022.30 1022.02 1022.01 1021.90 1021.89 1022.02 1022.29 1022.63 1022.70 1022.66 1022.43 1022.27 1021.95 1021.81 1021.68 1021.66 1021.78 1022.12 1022.66 1023.24 1023.71 1024.26 1024.66 1024.80 1024.98 1025.18 1025.38 1025.77
1033.37 1032.63 1031.99 1031.40 1030.74 1030.12 1029.42 1028.71 1027.69 1026.94 1026.37 1025.46 1024.59 1023.72 1022.67 1022.00 1021.54 1021.24 1021.25 1021.26 1021.63 1021.98 1022.59 1022.73 1022.64 1022.61 1022.47 1022.26 1021.97 1021.72 1021.75 1021.78 1021.99 1022.31 1022.88 1023.42 1023.95 1024.32 1024.57 1024.78 1025.08 1025.47 1025.79
1032.73 1032.14 1031.61 1031.02 1030.54 1029.95 1029.33 1028.65 1028.02 1027.27 1026.41 1025.57 1024.93 1024.08 1023.06 1022.19 1021.43 1020.94 1020.53 1020.73 1021.21 1021.36 1022.36 1022.53 1022.49 1022.47 1022.46 1022.40 1021.88 1021.57 1021.37 1021.64 1021.85 1022.11 1022.47 1022.99 1023.59 1023.93 1024.39 1024.66 1024.91 1025.38 1025.87
1032.00 1031.35 1030.79 1030.33 1029.94 1029.49 1028.99 1028.41 1027.82 1027.20 1026.54 1025.85 1025.11 1024.27 1023.55 1022.66 1021.79 1020.97 1020.45 1019.81 1020.31 1021.12 1021.82 1022.23 1022.02 1022.10 1021.99 1021.74 1021.55 1021.34 1021.25 1021.23 1021.39 1021.78 1022.10 1022.46 1023.07 1023.56 1024.00 1024.40 1024.82 1025.25 1025.66
1031.13 1030.50 1030.02 1029.59 1029.10 1028.66 1028.27 1027.87 1027.36 1026.88 1026.35 1025.75 1025.17 1024.45 1023.70 1023.05 1022.06 1021.11 1020.49 1020.08 1019.68 1020.30 1020.96 1021.41 1021.42 1021.57 1021.53 1021.42 1021.24 1021.03 1020.89 1020.94 1021.14 1021.29 1021.73 1022.10 1022.51 1023.01 1023.46 1023.99 1024.45 1024.87 1025.38
1030.40 1029.86 1029.32 1028.81 1028.31 1027.88 1027.49 1027.06 1026.65 1026.26 1025.80 1025.25 1024.67 1024.22 1023.50 1022.70 1021.89 1021.30 1020.85 1020.44 1020.23 1020.31 1020.52 1020.81 1020.89 1020.99 1020.98 1020.90 1020.83 1020.73 1020.43 1020.46 1020.61 1020.92 1021.27 1021.72 1022.06 1022.53 1023.01 1023.47 1023.95 1024.50 1025.12
1029.87 1029.37 1028.86 1028.34 1027.63 1027.03 1026.55 1026.15 1025.77 1025.36 1024.93 1024.49 1023.90 1023.44 1022.84 1022.21 1021.65 1021.12 1020.56 1020.10 1020.05 1020.19 1020.11 1020.22 1020.24 1020.33 1020.35 1020.38 1020.24 1019.99 1019.88 1020.01 1020.14 1020.47 1020.88 1021.24 1021.64 1021.97 1022.49 1023.06 1023.64 1024.26 1024.86
1029.46 1028.97 1028.31 1027.66 1027.01 1026.23 1025.58 1025.14 1024.75 1024.32 1023.89 1023.50 1023.11 1022.74 1022.39 1022.03 1021.59 1021.07 1020.60 1020.27 1020.13 1020.08 1019.81 1019.83 1019.82 1019.77 1019.76 1019.72 1019.62 1019.30 1019.20 1019.36 1019.57 1019.87 1020.40 1020.78 1021.19 1021.56 1021.96 1022.53 1023.14 1023.87 1024.49
1029.16 1028.61 1027.97 1027.20 1026.54 1025.88 1025.11 1024.47 1023.94 1023.28 1022.84 1022.47 1022.11 1021.79 1021.47 1021.12 1020.80 1020.44 1020.11 1019.82 1019.73 1019.60 1019.45 1019.25 1019.09 1018.92 1019.04 1019.17 1019.10 1018.85 1018.56 1018.81 1019.09 1019.26 1019.69 1020.25 1020.66 1021.07 1021.47 1021.97 1022.63 1023.30 1023.97
1029.00 1028.42 1027.66 1026.89 1026.15 1025.42 1024.64 1023.88 1023.27 1022.63 1022.06 1021.52 1020.99 1020.63 1020.37 1020.17 1019.94 1019.69 1019.45 1019.18 1018.98 1018.89 1018.59 1018.41 1018.37 1018.31 1018.35 1018.50 1018.56 1018.48 1018.31 1018.21 1018.58 1018.85 1019.21 1019.64 1020.07 1020.48 1020.91 1021.39 1022.10 1022.92 1023.57
1028.78 1028.09 1027.28 1026.40 1025.65 1024.92 1024.16 1023.33 1022.58 1021.94 1021.33 1020.82 1020.27 1019.65 1019.25 1019.12 1018.94 1018.75 1018.59 1018.43 1018.21 1018.01 1017.77 1017.57 1017.50 1017.55 1017.57 1017.65 1017.75 1017.79 1017.84 1017.69 1017.82 1018.21 1018.60 1018.98 1019.45 1019.97 1020.45 1020.93 1021.64 1022.44 1023.17
Thickness
5349 5351 5353 5357 5362 5368 5373 5378 5384 5392 5399 5404 5410 5420 5427 5430 5438 5443 5446 5448 5454 5459 5463 5468 5472 5475 5479 5482 5483 5484 5487 5488 5486 5480 5484 5484 5479 5482 5483 5483 5483 5484 5484
5333 5336 5339 5344 5348 5352 5357 5363 5368 5375 5382 5390 5396 5402 5411 5416 5425 5431 5434 5438 5441 5446 5452 5457 5462 5466 5469 5472 5475 5478 5479 5481 5479 5477 5474 5475 5473 5474 5476 5476 5474 5476 5476
5316 5319 5325 5330 5337 5342 5345 5350 5355 5360 5367 5377 5385 5391 5396 5404 5414 5417 5420 5424 5430 5436 5440 5446 5451 5456 5459 5462 5464 5467 5470 5473 5472 5470 5467 5465 5466 5466 5466 5466 5465 5467 5468
5296 5301 5307 5313 5320 5327 5334 5339 5343 5348 5352 5360 5369 5376 5382 5390 5396 5402 5406 5412 5418 5425 5430 5434 5439 5443 5447 5451 5454 5456 5461 5462 5463 5461 5461 5460 5461 5462 5461 5458 5456 5458 5463
5282 5288 5291 5297 5304 5312 5318 5324 5330 5336 5340 5345 5353 5361 5369 5376 5383 5389 5395 5403 5409 5415 5421 5424 5428 5432 5437 5442 5444 5445 5449 5450 5453 5454 5455 5455 5454 5455 5455 5454 5451 5452 5456
5260 5266 5273 5279 5286 5295 5303 5309 5316 5321 5327 5334 5339 5346 5354 5362 5370 5378 5384 5391 5397 5403 5408 5413 5418 5422 5426 5432 5436 5439 5442 5442 5442 5446 5448 5452 5450 5451 5450 5448 5449 5446 5449
5237 5245 5253 5262 5270 5275 5283 5291 5299 5306 5313 5319 5325 5332 5339 5348 5357 5365 5372 5378 5386 5392 5398 5402 5408 5413 5418 5422 5424 5428 5433 5436 5438 5440 5441 5445 5445 5447 5445 5446 5446 5444 5444
5218 5225 5234 5240 5248 5257 5264 5271 5279 5289 5296 5304 5312 5318 5325 5334 5343 5351 5360 5367 5372 5381 5388 5394 5398 5402 5406 5411 5413 5418 5422 5425 5429 5433 5435 5437 5441 5443 5443 5443 5441 5439 5436
5198 5204 5213 5221 5228 5237 5246 5255 5263 5273 5282 5290 5297 5304 5312 5322 5330 5338 5346 5353 5360 5368 5377 5384 5388 5395 5399 5403 5405 5406 5410 5414 5419 5423 5428 5431 5434 5436 5437 5434 5433 5433 5432
5177 5185 5192 5201 5209 5218 5228 5239 5247 5257 5268 5277 5285 5291 5299 5308 5317 5326 5333 5338 5346 5353 5363 5372 5378 5387 5391 5396 5397 5399 5402 5405 5409 5412 5416 5419 5422 5425 5427 5428 5427 5428 5427
5158 5166 5174 5183 5192 5202 5214 5223 5234 5244 5254 5262 5271 5280 5287 5295 5304 5312 5321 5327 5333 5342 5349 5359 5367 5378 5382 5386 5393 5393 5396 5397 5398 5400 5404 5408 5411 5412 5414 5418 5420 5420 5420
5141 5147 5155 5165 5175 5186 5198 5208 5218 5229 5240 5249 5257 5268 5277 5285 5292 5300 5308 5316 5322 5328 5338 5346 5355 5364 5371 5379 5384 5386 5390 5389 5389 5390 5392 5396 5399 5400 5403 5407 5409 5410 5411
5129 5131 5140 5149 5157 5168 5179 5191 5202 5212 5224 5236 5244 5253 5262 5271 5279 5288 5296 5302 5309 5316 5325 5333 5343 5353 5361 5368 5374 5379 5381 5381 5382 5384 5385 5387 5390 5392 5394 5396 5397 5398 5400
5124 5125 5127 5133 5141 5150 5161 5172 5183 5194 5205 5218 5229 5239 5247 5254 5265 5273 5280 5288 5296 5303 5312 5319 5328 5338 5347 5355 5362 5370 5372 5375 5376 5379 5378 5379 5380 5383 5385 5387 5389 5389 5391
5121 5121 5123 5125 5128 5134 5141 5151 5162 5173 5182 5195 5210 5220 5230 5242 5246 5255 5265 5272 5279 5288 5294 5305 5313 5321 5331 5340 5348 5357 5362 5367 5369 5371 5371 5372 5372 5375 5377 5379 5382 5382 5384
5117 5117 5117 5117 5120 5123 5128 5134 5140 5152 5163 5176 5189 5199 5213 5226 5233 5241 5251 5259 5266 5273 5276 5288 5295 5304 5310 5324 5333 5341 5349 5356 5360 5363 5364 5365 5366 5367 5371 5374 5376 5378 5379
5111 5112 5112 5112 5113 5114 5117 5120 5126 5131 5138 5149 5162 5175 5190 5206 5216 5227 5235 5244 5251 5259 5258 5267 5277 5287 5298 5305 5317 5327 5334 5343 5350 5356 5358 5359 5360 5362 5365 5368 5370 5371 5372
5108 5107 5107 5106 5105 5105 5106 5108 5111 5117 5121 5126 5133 5145 5161 5178 5193 5206 5220 5227 5235 5246 5247 5254 5263 5273 5281 5291 5302 5313 5323 5330 5338 5344 5350 5353 5354 5357 5359 5362 5365 5366 5365
5103 5104 5104 5102 5099 5098 5097 5097 5098 5101 5104 5106 5109 5118 5129 5145 5163 5181 5195 5214 5226 5234 5233 5239 5249 5257 5267 5276 5288 5301 5310 5319 5327 5334 5341 5346 5349 5351 5353 5355 5358 5360 5360
5099 5100 5100 5098 5094 5091 5088 5086 5085 5084 5082 5083 5089 5097 5102 5116 5133 5153 5169 5187 5208 5218 5220 5228 5237 5245 5255 5264 5274 5287 5298 5307 5315 5323 5328 5336 5342 5346 5349 5350 5353 5355 5357
5097 5096 5095 5093 5090 5086 5081 5077 5075 5072 5070 5071 5074 5080 5089 5099 5112 5128 5143 5160 5179 5194 5201 5211 5222 5233 5243 5253 5262 5273 5285 5295 5304 5312 5318 5324 5332 5339 5342 5345 5348 5350 5351
5094 5091 5088 5085 5084 5081 5077 5071 5067 5064 5062 5063 5066 5070 5077 5086 5098 5111 5126 5142 5155 5170 5182 5196 5209 5221 5231 5242 5252 5263 5273 5282 5292 5300 5308 5315 5322 5331 5336 5339 5342 5345 5347
5090 5086 5083 5081 5080 5078 5073 5067 5063 5059 5057 5057 5059 5061 5064 5071 5082 5094 5107 5119 5133 5149 5164 5178 5193 5208 5220 5231 5242 5253 5263 5270 5279 5290 5298 5306 5313 5322 5330 5334 5337 5341 5342
5084 5081 5078 5076 5074 5071 5067 5063 5059 5056 5053 5053 5054 5056 5059 5064 5073 5084 5095 5107 5117 5131 5146 5161 5178 5194 5208 5219 5231 5243 5253 5260 5268 5280 5290 5298 5305 5313 5323 5328 5332 5337 5338
5080 5076 5073 5071 5069 5066 5062 5058 5054 5051 5050 5051 5051 5053 5056 5059 5067 5077 5087 5097 5108 5119 5134 5149 5165 5181 5195 5208 5220 5232 5242 5252 5259 5269 5282 5291 5299 5307 5316 5323 5328 5331 5333
5076 5073 5070 5068 5066 5063 5059 5056 5053 5050 5048 5047 5049 5053 5055 5056 5062 5072 5082 5092 5102 5112 5124 5139 5155 5170 5184 5198 5211 5223 5234 5244 5254 5262 5273 5285 5293 5301 5310 5317 5322 5326 5329